sat.trackr.live / text

‹ back to catalog

STARLINK-37778

NORAD 69352 · 2026-122Z

PAYLOAD ACTIVE UNKNOWN

§ Identity

Operator
Country
US
Launch date
2026-06-03
Launch site
AFWTR
Launch vehicle
Mass (kg)
RCS (m²)

Purposes: comms

External: N2YO · Heavens-Above · Gunter

§ Orbital elements

Epoch: 2026-09-19T07:47:06.524448Z

Period
93.91 min
Inclination
97.2848°
Eccentricity
0.0001107
Mean motion
15.33446718 rev/d
Perigee alt
464.8 km
Apogee alt
466.3 km
Semi-major
6,843.7 km
B*
5.9658e-4
RAAN
291.0282°
Arg perigee
87.8902°
Mean anomaly
272.2467°
Rev number
1,662

§ Raw data

STARLINK-377781 69352U 26122Z   26262.32438107  .00019235  00000+0  59658-3 0  99992 69352  97.2848 291.0282 0001107  87.8902 272.2467 15.33446718 16629

JSON: /api/v1/satellites/69352 · /tle

For live sub-satellite position, see the globe view (requires WebGL).

§ Visibility from observer

Set your observer location to see the next 7 days of passes ≥ 10°. The values pass through the URL so the page stays shareable.

No JS? Fill the form by hand. The geolocation button needs JavaScript.